Year,Month,Day,Hour,Minute,Value (Times are PST for temperature in C)
2010,08,03,00,00,15.20
2010,08,03,00,01,15.20
2010,08,03,00,02,15.20
2010,08,03,00,03,15.20
2010,08,03,00,04,15.20
2010,08,03,00,05,15.10
2010,08,03,00,06,15.10
2010,08,03,00,07,15.10
2010,08,03,00,08,15.10
2010,08,03,00,09,15.10
2010,08,03,00,10,15.10
2010,08,03,00,11,15.00
2010,08,03,00,12,15.00
2010,08,03,00,13,15.00
2010,08,03,00,14,15.00
2010,08,03,00,15,15.00
2010,08,03,00,16,14.90
2010,08,03,00,17,14.90
2010,08,03,00,18,14.90
2010,08,03,00,19,14.90
2010,08,03,00,20,14.90
2010,08,03,00,21,14.90
2010,08,03,00,22,15.00
2010,08,03,00,23,15.00
2010,08,03,00,24,15.00
2010,08,03,00,25,15.00
2010,08,03,00,26,15.00
2010,08,03,00,27,15.00
2010,08,03,00,28,15.00
2010,08,03,00,29,15.00
2010,08,03,00,30,15.00
2010,08,03,00,31,15.00
2010,08,03,00,32,15.10
2010,08,03,00,33,15.10
2010,08,03,00,34,15.00
2010,08,03,00,35,15.10
2010,08,03,00,36,15.10
2010,08,03,00,37,15.10
2010,08,03,00,38,15.10
2010,08,03,00,39,15.00
2010,08,03,00,40,15.00
2010,08,03,00,41,15.00
2010,08,03,00,42,15.00
2010,08,03,00,43,14.90
2010,08,03,00,44,14.90
2010,08,03,00,45,14.90
2010,08,03,00,46,14.90
2010,08,03,00,47,14.90
2010,08,03,00,48,14.90
2010,08,03,00,49,14.80
2010,08,03,00,50,14.80
2010,08,03,00,51,14.80
2010,08,03,00,52,14.80
2010,08,03,00,53,14.80
2010,08,03,00,54,14.80
2010,08,03,00,55,14.70
2010,08,03,00,56,14.70
2010,08,03,00,57,14.70
2010,08,03,00,58,14.60
2010,08,03,00,59,14.60
2010,08,03,01,00,14.60
2010,08,03,01,01,14.60
2010,08,03,01,02,14.60
2010,08,03,01,03,14.60
2010,08,03,01,04,14.60
2010,08,03,01,05,14.60
2010,08,03,01,06,14.60
2010,08,03,01,07,14.60
2010,08,03,01,08,14.70
2010,08,03,01,09,14.80
2010,08,03,01,10,14.80
2010,08,03,01,11,14.80
2010,08,03,01,12,14.80
2010,08,03,01,13,14.80
2010,08,03,01,14,14.80
2010,08,03,01,15,14.80
2010,08,03,01,16,14.80
2010,08,03,01,17,14.80
2010,08,03,01,18,14.80
2010,08,03,01,19,14.80
2010,08,03,01,20,14.80
2010,08,03,01,21,14.80
2010,08,03,01,22,14.80
2010,08,03,01,23,14.70
2010,08,03,01,24,14.70
2010,08,03,01,25,14.70
2010,08,03,01,26,14.70
2010,08,03,01,27,14.70
2010,08,03,01,28,14.70
2010,08,03,01,29,14.60
2010,08,03,01,30,14.60
2010,08,03,01,31,14.60
2010,08,03,01,32,14.60
2010,08,03,01,33,14.60
2010,08,03,01,34,14.60
2010,08,03,01,35,14.60
2010,08,03,01,36,14.50
2010,08,03,01,37,14.50
2010,08,03,01,38,14.50
2010,08,03,01,39,14.50
2010,08,03,01,40,14.40
2010,08,03,01,41,14.50
2010,08,03,01,42,14.40
2010,08,03,01,43,14.50
2010,08,03,01,44,14.40
2010,08,03,01,45,14.50
2010,08,03,01,46,14.50
2010,08,03,01,47,14.50
2010,08,03,01,48,14.50
2010,08,03,01,49,14.50
2010,08,03,01,50,14.60
2010,08,03,01,51,14.60
2010,08,03,01,52,14.60
2010,08,03,01,53,14.70
2010,08,03,01,54,14.70
2010,08,03,01,55,14.70
2010,08,03,01,56,14.80
2010,08,03,01,57,14.80
2010,08,03,01,58,14.90
2010,08,03,01,59,15.00
2010,08,03,02,00,15.00
2010,08,03,02,01,15.20
2010,08,03,02,02,15.20
2010,08,03,02,03,15.30
2010,08,03,02,04,15.40
2010,08,03,02,05,15.50
2010,08,03,02,06,15.50
2010,08,03,02,07,15.60
2010,08,03,02,08,15.60
2010,08,03,02,09,15.70
2010,08,03,02,10,15.70
2010,08,03,02,11,15.80
2010,08,03,02,12,15.80
2010,08,03,02,13,15.90
2010,08,03,02,14,15.90
2010,08,03,02,15,16.00
2010,08,03,02,16,16.10
2010,08,03,02,17,16.10
2010,08,03,02,18,16.20
2010,08,03,02,19,16.20
2010,08,03,02,20,16.20
2010,08,03,02,21,16.30
2010,08,03,02,22,16.30
2010,08,03,02,23,16.30
2010,08,03,02,24,16.40
2010,08,03,02,25,16.40
2010,08,03,02,26,16.40
2010,08,03,02,27,16.40
2010,08,03,02,28,16.50
2010,08,03,02,29,16.50
2010,08,03,02,30,16.50
2010,08,03,02,31,16.50
2010,08,03,02,32,16.50
2010,08,03,02,33,16.50
2010,08,03,02,34,16.50
2010,08,03,02,35,16.50
2010,08,03,02,36,16.50
2010,08,03,02,37,16.60
2010,08,03,02,38,16.60
2010,08,03,02,39,16.50
2010,08,03,02,40,16.50
2010,08,03,02,41,16.50
2010,08,03,02,42,16.50
2010,08,03,02,43,16.40
2010,08,03,02,44,16.40
2010,08,03,02,45,16.40
2010,08,03,02,46,16.40
2010,08,03,02,47,16.40
2010,08,03,02,48,16.40
2010,08,03,02,49,16.30
2010,08,03,02,50,16.30
2010,08,03,02,51,16.30
2010,08,03,02,52,16.30
2010,08,03,02,53,16.40
2010,08,03,02,54,16.40
2010,08,03,02,55,16.50
2010,08,03,02,56,16.50
2010,08,03,02,57,16.50
2010,08,03,02,58,16.50
2010,08,03,02,59,16.60
2010,08,03,03,00,16.60
2010,08,03,03,01,16.60
2010,08,03,03,02,16.60
2010,08,03,03,03,16.60
2010,08,03,03,04,16.60
2010,08,03,03,05,16.60
2010,08,03,03,06,16.60
2010,08,03,03,07,16.60
2010,08,03,03,08,16.60
2010,08,03,03,09,16.60
2010,08,03,03,10,16.50
2010,08,03,03,11,16.50
2010,08,03,03,12,16.50
2010,08,03,03,13,16.40
2010,08,03,03,14,16.40
2010,08,03,03,15,16.40
2010,08,03,03,16,16.40
2010,08,03,03,17,16.30
2010,08,03,03,18,16.30
2010,08,03,03,19,16.30
2010,08,03,03,20,16.30
2010,08,03,03,21,16.30
2010,08,03,03,22,16.20
2010,08,03,03,23,16.20
2010,08,03,03,24,16.20
2010,08,03,03,25,16.30
2010,08,03,03,26,16.30
2010,08,03,03,27,16.30
2010,08,03,03,28,16.30
2010,08,03,03,29,16.30
2010,08,03,03,30,16.30
2010,08,03,03,31,16.30
2010,08,03,03,32,16.30
2010,08,03,03,33,16.30
2010,08,03,03,34,16.30
2010,08,03,03,35,16.30
2010,08,03,03,36,16.30
2010,08,03,03,37,16.30
2010,08,03,03,38,16.30
2010,08,03,03,39,16.30
2010,08,03,03,40,16.30
2010,08,03,03,41,16.30
2010,08,03,03,42,16.30
2010,08,03,03,43,16.30
2010,08,03,03,44,16.30
2010,08,03,03,45,16.30
2010,08,03,03,46,16.30
2010,08,03,03,47,16.30
2010,08,03,03,48,16.30
2010,08,03,03,49,16.40
2010,08,03,03,50,16.40
2010,08,03,03,51,16.40
2010,08,03,03,52,16.40
2010,08,03,03,53,16.40
2010,08,03,03,54,16.40
2010,08,03,03,55,16.40
2010,08,03,03,56,16.40
2010,08,03,03,57,16.40
2010,08,03,03,58,16.40
2010,08,03,03,59,16.40
2010,08,03,04,00,16.40
2010,08,03,04,01,16.30
2010,08,03,04,02,16.30
2010,08,03,04,03,16.30
2010,08,03,04,04,16.30
2010,08,03,04,05,16.30
2010,08,03,04,06,16.20
2010,08,03,04,07,16.20
2010,08,03,04,08,16.20
2010,08,03,04,09,16.20
2010,08,03,04,10,16.20
2010,08,03,04,11,16.10
2010,08,03,04,12,16.10
2010,08,03,04,13,16.10
2010,08,03,04,14,16.10
2010,08,03,04,15,16.10
2010,08,03,04,16,16.00
2010,08,03,04,17,16.00
2010,08,03,04,18,16.00
2010,08,03,04,19,15.90
2010,08,03,04,20,15.90
2010,08,03,04,21,15.90
2010,08,03,04,22,15.90
2010,08,03,04,23,15.90
2010,08,03,04,24,15.90
2010,08,03,04,25,15.90
2010,08,03,04,26,15.90
2010,08,03,04,27,15.90
2010,08,03,04,28,15.90
2010,08,03,04,29,15.90
2010,08,03,04,30,15.90
2010,08,03,04,31,15.90
2010,08,03,04,32,15.90
2010,08,03,04,33,15.90
2010,08,03,04,34,15.90
2010,08,03,04,35,15.90
2010,08,03,04,36,15.90
2010,08,03,04,37,15.90
2010,08,03,04,38,15.90
2010,08,03,04,39,15.90
2010,08,03,04,40,15.90
2010,08,03,04,41,15.90
2010,08,03,04,42,15.90
2010,08,03,04,43,15.90
2010,08,03,04,44,15.90
2010,08,03,04,45,15.90
2010,08,03,04,46,15.90
2010,08,03,04,47,15.90
2010,08,03,04,48,15.90
2010,08,03,04,49,15.80
2010,08,03,04,50,15.80
2010,08,03,04,51,15.80
2010,08,03,04,52,15.80
2010,08,03,04,53,15.80
2010,08,03,04,54,15.70
2010,08,03,04,55,15.70
2010,08,03,04,56,15.60
2010,08,03,04,57,15.60
2010,08,03,04,58,15.60
2010,08,03,04,59,15.50
2010,08,03,05,00,15.50
2010,08,03,05,01,15.40
2010,08,03,05,02,15.40
2010,08,03,05,03,15.40
2010,08,03,05,04,15.40
2010,08,03,05,05,15.40
2010,08,03,05,06,15.30
2010,08,03,05,07,15.30
2010,08,03,05,08,15.20
2010,08,03,05,09,15.20
2010,08,03,05,10,15.10
2010,08,03,05,11,15.10
2010,08,03,05,12,15.10
2010,08,03,05,13,15.00
2010,08,03,05,14,15.00
2010,08,03,05,15,14.90
2010,08,03,05,16,14.90
2010,08,03,05,17,14.90
2010,08,03,05,18,14.80
2010,08,03,05,19,14.80
2010,08,03,05,20,14.80
2010,08,03,05,21,14.80
2010,08,03,05,22,14.70
2010,08,03,05,23,14.70
2010,08,03,05,24,14.70
2010,08,03,05,25,14.70
2010,08,03,05,26,14.60
2010,08,03,05,27,14.60
2010,08,03,05,28,14.60
2010,08,03,05,29,14.50
2010,08,03,05,30,14.50
2010,08,03,05,31,14.40
2010,08,03,05,32,14.40
2010,08,03,05,33,14.40
2010,08,03,05,34,14.30
2010,08,03,05,35,14.30
2010,08,03,05,36,14.30
2010,08,03,05,37,14.30
2010,08,03,05,38,14.30
2010,08,03,05,39,14.20
2010,08,03,05,40,14.20
2010,08,03,05,41,14.20
2010,08,03,05,42,14.20
2010,08,03,05,43,14.20
2010,08,03,05,44,14.20
2010,08,03,05,45,14.20
2010,08,03,05,46,14.20
2010,08,03,05,47,14.20
2010,08,03,05,48,14.20
2010,08,03,05,49,14.20
2010,08,03,05,50,14.10
2010,08,03,05,51,14.10
2010,08,03,05,52,14.10
2010,08,03,05,53,14.10
2010,08,03,05,54,14.10
2010,08,03,05,55,14.10
2010,08,03,05,56,14.10
2010,08,03,05,57,14.10
2010,08,03,05,58,14.10
2010,08,03,05,59,14.10
2010,08,03,06,00,14.10
2010,08,03,06,01,14.10
2010,08,03,06,02,14.10
2010,08,03,06,03,14.10
2010,08,03,06,04,14.10
2010,08,03,06,05,14.10
2010,08,03,06,06,14.20
2010,08,03,06,07,14.30
2010,08,03,06,08,14.30
2010,08,03,06,09,14.40
2010,08,03,06,10,14.40
2010,08,03,06,11,14.50
2010,08,03,06,12,14.60
2010,08,03,06,13,14.70
2010,08,03,06,14,14.70
2010,08,03,06,15,14.80
2010,08,03,06,16,14.90
2010,08,03,06,17,15.00
2010,08,03,06,18,15.10
2010,08,03,06,19,15.20
2010,08,03,06,20,15.20
2010,08,03,06,21,15.30
2010,08,03,06,22,15.30
2010,08,03,06,23,15.30
2010,08,03,06,24,15.40
2010,08,03,06,25,15.40
2010,08,03,06,26,15.40
2010,08,03,06,27,15.40
2010,08,03,06,28,15.40
2010,08,03,06,29,15.50
2010,08,03,06,30,15.50
2010,08,03,06,31,15.50
2010,08,03,06,32,15.50
2010,08,03,06,33,15.60
2010,08,03,06,34,15.60
2010,08,03,06,35,15.70
2010,08,03,06,36,15.70
2010,08,03,06,37,15.70
2010,08,03,06,38,15.70
2010,08,03,06,39,15.70
2010,08,03,06,40,15.70
2010,08,03,06,41,15.80
2010,08,03,06,42,15.80
2010,08,03,06,43,15.80
2010,08,03,06,44,15.80
2010,08,03,06,45,15.80
2010,08,03,06,46,15.80
2010,08,03,06,47,15.80
2010,08,03,06,48,15.80
2010,08,03,06,49,15.80
2010,08,03,06,50,15.80
2010,08,03,06,51,15.80
2010,08,03,06,52,15.90
2010,08,03,06,53,15.90
2010,08,03,06,54,15.90
2010,08,03,06,55,15.90
2010,08,03,06,56,15.90
2010,08,03,06,57,15.90
2010,08,03,06,58,15.90
2010,08,03,06,59,15.90
2010,08,03,07,00,15.90
2010,08,03,07,01,15.90
2010,08,03,07,02,15.90
2010,08,03,07,03,15.90
2010,08,03,07,04,15.90
2010,08,03,07,05,15.90
2010,08,03,07,06,15.90
2010,08,03,07,07,16.00
2010,08,03,07,08,16.00
2010,08,03,07,09,16.00
2010,08,03,07,10,16.10
2010,08,03,07,11,16.10
2010,08,03,07,12,16.10
2010,08,03,07,13,16.20
2010,08,03,07,14,16.20
2010,08,03,07,15,16.20
2010,08,03,07,16,16.30
2010,08,03,07,17,16.30
2010,08,03,07,18,16.30
2010,08,03,07,19,16.30
2010,08,03,07,20,16.40
2010,08,03,07,21,16.40
2010,08,03,07,22,16.40
2010,08,03,07,23,16.40
2010,08,03,07,24,16.40
2010,08,03,07,25,16.40
2010,08,03,07,26,16.40
2010,08,03,07,27,16.40
2010,08,03,07,28,16.40
2010,08,03,07,29,16.40
2010,08,03,07,30,16.40
2010,08,03,07,31,16.40
2010,08,03,07,32,16.40
2010,08,03,07,33,16.40
2010,08,03,07,34,16.40
2010,08,03,07,35,16.40
2010,08,03,07,36,16.40
2010,08,03,07,37,16.40
2010,08,03,07,38,16.40
2010,08,03,07,39,16.40
2010,08,03,07,40,16.40
2010,08,03,07,41,16.40
2010,08,03,07,42,16.40
2010,08,03,07,43,16.40
2010,08,03,07,44,16.40
2010,08,03,07,45,16.40
2010,08,03,07,46,16.40
2010,08,03,07,47,16.40
2010,08,03,07,48,16.40
2010,08,03,07,49,16.40
2010,08,03,07,50,16.40
2010,08,03,07,51,16.40
2010,08,03,07,52,16.40
2010,08,03,07,53,16.40
2010,08,03,07,54,16.40
2010,08,03,07,55,16.40
2010,08,03,07,56,16.40
2010,08,03,07,57,16.40
2010,08,03,07,58,16.40
2010,08,03,07,59,16.40
2010,08,03,08,00,16.40
2010,08,03,08,01,16.40
2010,08,03,08,02,16.40
2010,08,03,08,03,16.40
2010,08,03,08,04,16.40
2010,08,03,08,05,16.40
2010,08,03,08,06,16.50
2010,08,03,08,07,16.50
2010,08,03,08,08,16.50
2010,08,03,08,09,16.50
2010,08,03,08,10,16.50
2010,08,03,08,11,16.50
2010,08,03,08,12,16.50
2010,08,03,08,13,16.50
2010,08,03,08,14,16.50
2010,08,03,08,15,16.50
2010,08,03,08,16,16.60
2010,08,03,08,17,16.60
2010,08,03,08,18,16.60
2010,08,03,08,19,16.60
2010,08,03,08,20,16.60
2010,08,03,08,21,16.60
2010,08,03,08,22,16.70
2010,08,03,08,23,16.70
2010,08,03,08,24,16.70
2010,08,03,08,25,16.70
2010,08,03,08,26,16.70
2010,08,03,08,27,16.70
2010,08,03,08,28,16.70
2010,08,03,08,29,16.80
2010,08,03,08,30,16.80
2010,08,03,08,31,16.80
2010,08,03,08,32,16.80
2010,08,03,08,33,16.90
2010,08,03,08,34,16.90
2010,08,03,08,35,16.90
2010,08,03,08,36,17.00
2010,08,03,08,37,17.00
2010,08,03,08,38,17.10
2010,08,03,08,39,17.10
2010,08,03,08,40,17.10
2010,08,03,08,41,17.20
2010,08,03,08,42,17.20
2010,08,03,08,43,17.30
2010,08,03,08,44,17.30
2010,08,03,08,46,17.30
2010,08,03,08,47,17.40
2010,08,03,08,48,17.40
2010,08,03,08,49,17.40
2010,08,03,08,50,17.50
2010,08,03,08,51,17.50
2010,08,03,08,52,17.60
2010,08,03,08,53,17.60
2010,08,03,08,54,17.60
2010,08,03,08,55,17.70
2010,08,03,08,56,17.70
2010,08,03,08,57,17.80
2010,08,03,08,58,17.80
2010,08,03,08,59,17.90
2010,08,03,09,00,18.00
2010,08,03,09,01,18.00
2010,08,03,09,02,18.10
2010,08,03,09,03,18.20
2010,08,03,09,04,18.30
2010,08,03,09,05,18.30
2010,08,03,09,06,18.40
2010,08,03,09,07,18.40
2010,08,03,09,08,18.50
2010,08,03,09,09,18.60
2010,08,03,09,10,18.60
2010,08,03,09,11,18.70
2010,08,03,09,12,18.80
2010,08,03,09,13,18.90
2010,08,03,09,14,18.90
2010,08,03,09,15,19.00
2010,08,03,09,16,19.10
2010,08,03,09,17,19.20
2010,08,03,09,18,19.20
2010,08,03,09,19,19.30
2010,08,03,09,20,19.40
2010,08,03,09,21,19.40
2010,08,03,09,22,19.40
2010,08,03,09,23,19.50
2010,08,03,09,24,19.50
2010,08,03,09,25,19.60
2010,08,03,09,26,19.60
2010,08,03,09,27,19.60
2010,08,03,09,28,19.60
2010,08,03,09,29,19.70
2010,08,03,09,30,19.70
2010,08,03,09,31,19.80
2010,08,03,09,32,19.80
2010,08,03,09,33,19.90
2010,08,03,09,34,19.90
2010,08,03,09,35,20.00
2010,08,03,09,36,20.00
2010,08,03,09,37,20.00
2010,08,03,09,38,20.00
2010,08,03,09,39,20.10
2010,08,03,09,40,20.10
2010,08,03,09,41,20.10
2010,08,03,09,42,20.20
2010,08,03,09,43,20.20
2010,08,03,09,44,20.20
2010,08,03,09,45,20.30
2010,08,03,09,46,20.40
2010,08,03,09,47,20.50
2010,08,03,09,48,20.60
2010,08,03,09,49,20.70
2010,08,03,09,50,20.70
2010,08,03,09,51,20.80
2010,08,03,09,52,20.90
2010,08,03,09,53,20.90
2010,08,03,09,54,20.90
2010,08,03,09,55,20.90
2010,08,03,09,56,20.90
2010,08,03,09,57,20.90
2010,08,03,09,58,21.00
2010,08,03,09,59,21.00
2010,08,03,10,00,21.10
2010,08,03,10,01,21.10
2010,08,03,10,02,21.10
2010,08,03,10,03,21.10
2010,08,03,10,04,21.20
2010,08,03,10,05,21.30
2010,08,03,10,06,21.30
2010,08,03,10,07,21.40
2010,08,03,10,08,21.50
2010,08,03,10,09,21.50
2010,08,03,10,10,21.60
2010,08,03,10,11,21.60
2010,08,03,10,12,21.60
2010,08,03,10,13,21.50
2010,08,03,10,14,21.50
2010,08,03,10,15,21.50
2010,08,03,10,16,21.50
2010,08,03,10,17,21.50
2010,08,03,10,18,21.50
2010,08,03,10,19,21.50
2010,08,03,10,20,21.60
2010,08,03,10,21,21.60
2010,08,03,10,22,21.60
2010,08,03,10,23,21.60
2010,08,03,10,24,21.70
2010,08,03,10,25,21.70
2010,08,03,10,26,21.60
2010,08,03,10,27,21.70
2010,08,03,10,28,21.70
2010,08,03,10,29,21.80
2010,08,03,10,30,21.90
2010,08,03,10,31,21.90
2010,08,03,10,32,21.90
2010,08,03,10,33,21.80
2010,08,03,10,34,21.70
2010,08,03,10,35,21.60
2010,08,03,10,36,21.60
2010,08,03,10,37,21.60
2010,08,03,10,38,21.50
2010,08,03,10,39,21.40
2010,08,03,10,40,21.40
2010,08,03,10,41,21.30
2010,08,03,10,42,21.30
2010,08,03,10,43,21.20
2010,08,03,10,44,21.20
2010,08,03,10,45,21.20
2010,08,03,10,46,21.20
2010,08,03,10,47,21.10
2010,08,03,10,48,21.00
2010,08,03,10,49,20.90
2010,08,03,10,50,20.80
2010,08,03,10,51,20.70
2010,08,03,10,52,20.70
2010,08,03,10,53,20.70
2010,08,03,10,54,20.60
2010,08,03,10,55,20.40
2010,08,03,10,56,20.30
2010,08,03,10,57,20.30
2010,08,03,10,58,20.30
2010,08,03,10,59,20.30
2010,08,03,11,00,20.30
2010,08,03,11,01,20.30
2010,08,03,11,02,20.30
2010,08,03,11,03,20.30
2010,08,03,11,04,20.30
2010,08,03,11,05,20.30
2010,08,03,11,06,20.40
2010,08,03,11,07,20.50
2010,08,03,11,08,20.50
2010,08,03,11,09,20.60
2010,08,03,11,10,20.70
2010,08,03,11,11,20.70
2010,08,03,11,12,20.70
2010,08,03,11,13,20.70
2010,08,03,11,14,20.70
2010,08,03,11,15,20.70
2010,08,03,11,16,20.70
2010,08,03,11,17,20.80
2010,08,03,11,18,20.80
2010,08,03,11,19,20.80
2010,08,03,11,20,20.80
2010,08,03,11,21,20.70
2010,08,03,11,22,20.70
2010,08,03,11,23,20.60
2010,08,03,11,24,20.60
2010,08,03,11,25,20.60
2010,08,03,11,26,20.60
2010,08,03,11,27,20.60
2010,08,03,11,28,20.60
2010,08,03,11,29,20.60
2010,08,03,11,30,20.70
2010,08,03,11,31,20.70
2010,08,03,11,32,20.70
2010,08,03,11,33,20.80
2010,08,03,11,34,20.80
2010,08,03,11,35,20.90
2010,08,03,11,36,21.00
2010,08,03,11,37,21.00
2010,08,03,11,38,21.10
2010,08,03,11,39,21.10
2010,08,03,11,40,21.20
2010,08,03,11,41,21.20
2010,08,03,11,42,21.20
2010,08,03,11,43,21.20
2010,08,03,11,44,21.20
2010,08,03,11,45,21.20
2010,08,03,11,46,21.10
2010,08,03,11,47,21.10
2010,08,03,11,48,21.10
2010,08,03,11,49,21.00
2010,08,03,11,50,21.00
2010,08,03,11,51,21.00
2010,08,03,11,52,21.00
2010,08,03,11,53,21.10
2010,08,03,11,54,21.10
2010,08,03,11,55,21.20
2010,08,03,11,56,21.20
2010,08,03,11,57,21.20
2010,08,03,11,58,21.20
2010,08,03,11,59,21.20
2010,08,03,12,00,21.30
2010,08,03,12,01,21.30
2010,08,03,12,02,21.40
2010,08,03,12,03,21.40
2010,08,03,12,04,21.40
2010,08,03,12,05,21.50
2010,08,03,12,06,21.60
2010,08,03,12,07,21.60
2010,08,03,12,08,21.60
2010,08,03,12,09,21.60
2010,08,03,12,10,21.50
2010,08,03,12,11,21.50
2010,08,03,12,12,21.50
2010,08,03,12,13,21.60
2010,08,03,12,14,21.60
2010,08,03,12,15,21.80
2010,08,03,12,16,21.80
2010,08,03,12,17,21.80
2010,08,03,12,18,21.80
2010,08,03,12,19,21.80
2010,08,03,12,20,21.90
2010,08,03,12,21,21.90
2010,08,03,12,22,21.90
2010,08,03,12,23,22.00
2010,08,03,12,24,22.10
2010,08,03,12,25,22.10
2010,08,03,12,26,22.20
2010,08,03,12,27,22.20
2010,08,03,12,28,22.20
2010,08,03,12,29,22.10
2010,08,03,12,30,22.10
2010,08,03,12,31,22.10
2010,08,03,12,32,22.00
2010,08,03,12,33,22.00
2010,08,03,12,34,22.10
2010,08,03,12,35,22.10
2010,08,03,12,36,22.20
2010,08,03,12,37,22.20
2010,08,03,12,38,22.20
2010,08,03,12,39,22.20
2010,08,03,12,40,22.10
2010,08,03,12,41,22.10
2010,08,03,12,42,22.10
2010,08,03,12,43,22.20
2010,08,03,12,44,22.20
2010,08,03,12,45,22.20
2010,08,03,12,46,22.20
2010,08,03,12,47,22.20
2010,08,03,12,48,22.10
2010,08,03,12,49,22.10
2010,08,03,12,50,22.10
2010,08,03,12,51,22.20
2010,08,03,12,52,22.30
2010,08,03,12,53,22.40
2010,08,03,12,54,22.40
2010,08,03,12,55,22.40
2010,08,03,12,56,22.30
2010,08,03,12,57,22.30
2010,08,03,12,58,22.30
2010,08,03,12,59,22.30
2010,08,03,13,00,22.30
2010,08,03,13,01,22.30
2010,08,03,13,02,22.30
2010,08,03,13,03,22.30
2010,08,03,13,04,22.30
2010,08,03,13,05,22.30
2010,08,03,13,06,22.30
2010,08,03,13,07,22.30
2010,08,03,13,08,22.20
2010,08,03,13,09,22.20
2010,08,03,13,10,22.30
2010,08,03,13,11,22.30
2010,08,03,13,12,22.30
2010,08,03,13,13,22.30
2010,08,03,13,14,22.40
2010,08,03,13,15,22.40
2010,08,03,13,16,22.50
2010,08,03,13,17,22.60
2010,08,03,13,18,22.60
2010,08,03,13,19,22.60
2010,08,03,13,20,22.70
2010,08,03,13,21,22.70
2010,08,03,13,22,22.80
2010,08,03,13,23,22.80
2010,08,03,13,24,22.80
2010,08,03,13,25,22.80
2010,08,03,13,26,22.80
2010,08,03,13,27,22.80
2010,08,03,13,28,22.90
2010,08,03,13,29,22.90
2010,08,03,13,30,23.00
2010,08,03,13,31,23.10
2010,08,03,13,32,23.20
2010,08,03,13,33,23.20
2010,08,03,13,34,23.20
2010,08,03,13,35,23.20
2010,08,03,13,36,23.30
2010,08,03,13,37,23.30
2010,08,03,13,38,23.30
2010,08,03,13,39,23.20
2010,08,03,13,40,23.20
2010,08,03,13,41,23.20
2010,08,03,13,42,23.30
2010,08,03,13,43,23.30
2010,08,03,13,44,23.30
2010,08,03,13,45,23.40
2010,08,03,13,46,23.40
2010,08,03,13,47,23.50
2010,08,03,13,48,23.60
2010,08,03,13,49,23.60
2010,08,03,13,50,23.60
2010,08,03,13,51,23.70
2010,08,03,13,52,23.70
2010,08,03,13,53,23.70
2010,08,03,13,54,23.90
2010,08,03,13,55,24.00
2010,08,03,13,56,24.10
2010,08,03,13,57,24.20
2010,08,03,13,58,24.20
2010,08,03,13,59,24.20
2010,08,03,14,00,24.20
2010,08,03,14,01,24.20
2010,08,03,14,02,24.10
2010,08,03,14,03,23.90
2010,08,03,14,04,23.80
2010,08,03,14,05,23.70
2010,08,03,14,06,23.60
2010,08,03,14,07,23.50
2010,08,03,14,08,23.50
2010,08,03,14,09,23.50
2010,08,03,14,10,23.50
2010,08,03,14,11,23.50
2010,08,03,14,12,23.50
2010,08,03,14,13,23.60
2010,08,03,14,14,23.60
2010,08,03,14,15,23.60
2010,08,03,14,16,23.70
2010,08,03,14,17,23.70
2010,08,03,14,18,23.60
2010,08,03,14,19,23.60
2010,08,03,14,20,23.70
2010,08,03,14,21,23.80
2010,08,03,14,22,23.80
2010,08,03,14,23,23.90
2010,08,03,14,24,23.90
2010,08,03,14,25,23.90
2010,08,03,14,26,23.90
2010,08,03,14,27,23.80
2010,08,03,14,28,23.90
2010,08,03,14,29,23.90
2010,08,03,14,30,23.90
2010,08,03,14,31,24.00
2010,08,03,14,32,24.00
2010,08,03,14,33,23.90
2010,08,03,14,34,23.90
2010,08,03,14,35,23.90
2010,08,03,14,36,23.90
2010,08,03,14,37,23.90
2010,08,03,14,38,23.90
2010,08,03,14,39,23.90
2010,08,03,14,40,23.90
2010,08,03,14,41,23.90
2010,08,03,14,42,23.80
2010,08,03,14,43,23.70
2010,08,03,14,44,23.60
2010,08,03,14,45,23.50
2010,08,03,14,46,23.40
2010,08,03,14,47,23.40
2010,08,03,14,48,23.30
2010,08,03,14,49,23.40
2010,08,03,14,50,23.50
2010,08,03,14,51,23.60
2010,08,03,14,52,23.60
2010,08,03,14,53,23.60
2010,08,03,14,54,23.60
2010,08,03,14,55,23.70
2010,08,03,14,56,23.70
2010,08,03,14,57,23.70
2010,08,03,14,58,23.70
2010,08,03,14,59,23.70
2010,08,03,15,00,23.70
2010,08,03,15,01,23.70
2010,08,03,15,02,23.70
2010,08,03,15,03,23.70
2010,08,03,15,04,23.70
2010,08,03,15,05,23.70
2010,08,03,15,06,23.70
2010,08,03,15,07,23.70
2010,08,03,15,08,23.70
2010,08,03,15,09,23.70
2010,08,03,15,10,23.70
2010,08,03,15,11,23.70
2010,08,03,15,12,23.70
2010,08,03,15,13,23.60
2010,08,03,15,14,23.60
2010,08,03,15,15,23.80
2010,08,03,15,16,23.90
2010,08,03,15,17,24.00
2010,08,03,15,18,24.10
2010,08,03,15,19,24.00
2010,08,03,15,20,24.00
2010,08,03,15,21,23.90
2010,08,03,15,22,23.90
2010,08,03,15,23,23.90
2010,08,03,15,24,23.90
2010,08,03,15,25,23.90
2010,08,03,15,26,23.80
2010,08,03,15,27,23.80
2010,08,03,15,28,23.70
2010,08,03,15,29,23.70
2010,08,03,15,30,23.80
2010,08,03,15,31,23.80
2010,08,03,15,32,23.90
2010,08,03,15,33,24.00
2010,08,03,15,34,24.10
2010,08,03,15,35,24.10
2010,08,03,15,36,24.20
2010,08,03,15,37,24.10
2010,08,03,15,38,24.00
2010,08,03,15,39,23.90
2010,08,03,15,40,23.80
2010,08,03,15,41,23.80
2010,08,03,15,42,23.90
2010,08,03,15,43,23.90
2010,08,03,15,44,24.00
2010,08,03,15,45,24.00
2010,08,03,15,46,24.10
2010,08,03,15,47,24.20
2010,08,03,15,48,24.30
2010,08,03,15,49,24.30
2010,08,03,15,50,24.30
2010,08,03,15,51,24.40
2010,08,03,15,52,24.50
2010,08,03,15,53,24.60
2010,08,03,15,54,24.50
2010,08,03,15,55,24.50
2010,08,03,15,56,24.50
2010,08,03,15,57,24.50
2010,08,03,15,58,24.50
2010,08,03,15,59,24.60
2010,08,03,16,00,24.70
2010,08,03,16,01,24.70
2010,08,03,16,02,24.80
2010,08,03,16,03,24.90
2010,08,03,16,04,24.90
2010,08,03,16,05,24.90
2010,08,03,16,06,24.90
2010,08,03,16,07,25.00
2010,08,03,16,08,25.10
2010,08,03,16,09,25.10
2010,08,03,16,10,25.20
2010,08,03,16,11,25.20
2010,08,03,16,12,25.30
2010,08,03,16,13,25.30
2010,08,03,16,14,25.20
2010,08,03,16,15,25.20
2010,08,03,16,16,25.10
2010,08,03,16,17,25.00
2010,08,03,16,18,25.00
2010,08,03,16,19,25.00
2010,08,03,16,20,25.00
2010,08,03,16,21,25.00
2010,08,03,16,22,25.00
2010,08,03,16,23,25.10
2010,08,03,16,24,25.10
2010,08,03,16,25,25.10
2010,08,03,16,26,25.10
2010,08,03,16,27,25.10
2010,08,03,16,28,25.10
2010,08,03,16,29,25.10
2010,08,03,16,30,25.10
2010,08,03,16,31,25.20
2010,08,03,16,32,25.20
2010,08,03,16,33,25.20
2010,08,03,16,34,25.30
2010,08,03,16,35,25.30
2010,08,03,16,36,25.30
2010,08,03,16,37,25.30
2010,08,03,16,38,25.30
2010,08,03,16,39,25.40
2010,08,03,16,40,25.40
2010,08,03,16,41,25.40
2010,08,03,16,42,25.40
2010,08,03,16,43,25.30
2010,08,03,16,44,25.40
2010,08,03,16,45,25.40
2010,08,03,16,46,25.40
2010,08,03,16,47,25.40
2010,08,03,16,48,25.40
2010,08,03,16,49,25.50
2010,08,03,16,50,25.60
2010,08,03,16,51,25.80
2010,08,03,16,52,25.90
2010,08,03,16,53,26.00
2010,08,03,16,54,26.10
2010,08,03,16,55,26.10
2010,08,03,16,56,26.10
2010,08,03,16,57,26.10
2010,08,03,16,58,26.10
2010,08,03,16,59,26.00
2010,08,03,17,00,25.90
2010,08,03,17,01,25.90
2010,08,03,17,02,25.90
2010,08,03,17,03,25.90
2010,08,03,17,04,25.90
2010,08,03,17,05,25.90
2010,08,03,17,06,26.00
2010,08,03,17,07,26.00
2010,08,03,17,08,25.90
2010,08,03,17,09,25.90
2010,08,03,17,10,25.80
2010,08,03,17,11,25.70
2010,08,03,17,12,25.70
2010,08,03,17,13,25.80
2010,08,03,17,14,25.80
2010,08,03,17,15,25.80
2010,08,03,17,16,25.90
2010,08,03,17,17,26.00
2010,08,03,17,18,26.00
2010,08,03,17,19,26.10
2010,08,03,17,20,26.10